EKCHEKSB

Guest
Details From EKCH - Kastrup
To EKSB - Sonderborg
Flight Number -
Tags generated
Created
Modified
Stats Distance 105 nm / 194 km
Max Altitude 12,600 ft / 3,840 m
Waypoints 3
Social Downloads 0
Likes 0
Share VATSIM

Download

Looking for another format? Having issues loading an existing format? Contact us
Advertisement - Login to hide

Notes

Basic altitude profile: - Ascent Rate: 2500ft/min - Ascent Speed: 250kts - Cruise Altitude: 35000ft - Cruise Speed: 420kts - Descent Rate: 1500ft/min - Descent Speed: 250kts Options: - Use NATs: yes - Use PACOTS: yes - Use low airways: yes - Use high airways: no

Route

EKCH KOR06 EKSB

ID Type Via Altitude Latitude Longitude Leg Dist Tot Dist Heading (true) Name
O EKCH APT - 0 ft / 0 m 55.61291˚ 12.64096˚ - 0 nm - Kastrup
KOR06 FIX - 12,600 ft / 3,840 m 55.36139˚ 11.51056˚ 41 nm 41 nm 249° / 248° -
O EKSB APT - 0 ft / 0 m 54.96283˚ 9.79402˚ 63 nm 104 nm 249° / 247° Sonderborg

Altitude Profile

Advertisement - Login to hide

EKCH

Details ICAO EKCH (CPH)
Name Kastrup
Region Denmark / Faroe Islands
Timezone Europe/Copenhagen (UTC+2.0)
Stats Elevation 17 ft / 5 m (AMSL)
Location 55.612915° 12.640961°
Runways 3
Magnetic Variation 3.801° E

METAR

EKCH 230420Z 28008KT CAVOK 12/08 Q1014 NOSIG

Decode

TAF

TAF EKCH 222303Z 2300/2324 30015KT 9999 SCT025 TEMPO 2306/2316 SCT035TCU

Decode

Departure Runways

ID Width Length Bearing (true) Bearing (mag) Surface Threshold Offset Overrun Length
04L 148 ft / 45 m 11,848 ft / 3,611 m 41.15° 37.35° Asphalt 0 ft / 0 m 0 ft / 0 m
04R 148 ft / 45 m 10,814 ft / 3,296 m 41.15° 37.35° Asphalt 0 ft / 0 m 0 ft / 0 m
12 148 ft / 45 m 10,047 ft / 3,063 m 123.21° 119.41° Asphalt 2,313 ft / 705 m 0 ft / 0 m
22L 148 ft / 45 m 10,814 ft / 3,296 m 221.17° 217.37° Asphalt 0 ft / 0 m 0 ft / 0 m
22R 148 ft / 45 m 11,848 ft / 3,611 m 221.18° 217.38° Asphalt 2,018 ft / 615 m 0 ft / 0 m
30 148 ft / 45 m 10,047 ft / 3,063 m 303.25° 299.45° Asphalt 886 ft / 270 m 0 ft / 0 m

EKSB

Details ICAO EKSB (SGD)
Name Sonderborg
Region Denmark / Faroe Islands
Timezone Europe/Copenhagen (UTC+2.0)
Stats Elevation 24 ft / 7 m (AMSL)
Location 54.962829° 9.794023°
Runways 1
Magnetic Variation 2.816° E

METAR

EKSB 230420Z AUTO 30016KT 260V320 9999NDV BKN021/// 13/10 Q1017

Decode

TAF

Not found

Destination Runways

ID Width Length Bearing (true) Bearing (mag) Surface Threshold Offset Overrun Length
14 98 ft / 30 m 5,884 ft / 1,793 m 139.42° 136.60° Asphalt 0 ft / 0 m 0 ft / 0 m
32 98 ft / 30 m 5,884 ft / 1,793 m 319.43° 316.61° Asphalt 0 ft / 0 m 0 ft / 0 m

Approach Navaids

Runway Type Ident Frequency Range Bearing (true) Bearing (mag) Slope Elevation
32 Localiser CIM 111.15 MHz 18 nm / 33 km 319.41° 316.60° - 24 ft / 7 m (AMSL)
32 Glidescope CIM 111.15 MHz 10 nm / 19 km 319.42° 316.61° 3.00° 24 ft / 7 m (AMSL)
32 DME CIM 111.15 MHz 18 nm / 33 km - - - 24 ft / 7 m (AMSL)

Popular Alternatives